[[{"header":{"parameterUnit":"m.s-1","parameterCategory":1,"la1":30.2991,"la2":30.254,"lo1":-89.0895,"lo2":-89.0444,"dy":0.0017,"dx":0.0017,"nx":28,"ny":28,"refTime":"2024-07-28T09:00:00:Z","depth":0,"parameterNumber":2,"parameterNumberName":"U-component_of_WINDS"},"data":[0,0,0,0,0,0,0,0,0,0,0,0,0,0,0,0,0,0,0,0,0,0,0,0,0,0,0,0,0,0,0,0,0,0,0,0,0,0,0,0,0,0,0,0,0,0,0,0,0,0,0,0,0,0,0,0,0,0,2.7273,2.7274,0,2.7328,2.7329,2.7329,2.7343,2.7343,2.7342,2.7342,2.7399,2.7401,2.7403,0,0,0,0,0,0,0,0,0,0,0,0,0,2.7181,2.7183,2.7273,2.7274,2.7274,2.7328,2.7329,2.733,2.7343,2.7343,2.7342,2.7342,2.7399,2.7401,2.7403,0,0,0,0,0,0,0,0,0,0,0,0,0,2.7227,2.7183,2.7273,2.7288,2.7289,2.7328,2.7329,2.733,2.7343,2.7343,2.7342,2.7342,2.7398,2.7401,2.7403,2.7431,0,0,2.7412,2.7413,0,0,0,0,0,0,0,0,2.7225,2.7231,2.7285,2.7287,2.7289,2.7328,2.7317,2.7364,2.7343,2.7323,2.7342,2.7341,2.7376,2.7381,2.7392,2.7434,2.7437,2.7412,2.7414,2.7415,2.7416,0,0,0,0,0,0,0,2.7221,2.7228,2.7295,2.7285,2.7288,2.7292,2.7298,2.7326,2.7352,2.7324,2.7326,2.7332,2.7377,2.7389,2.7394,2.7437,2.7412,2.7415,2.7416,2.7417,2.7507,2.7507,0,0,0,0,0,0,2.7215,2.7225,2.7293,2.7296,2.7255,2.7294,2.7301,2.7316,2.7352,2.7356,2.7332,2.7332,2.7385,2.739,2.7396,2.7432,2.7415,2.7418,2.7419,2.7506,2.7507,2.7508,0,0,0,0,0,0,2.7213,2.7221,2.7291,2.7261,2.727,2.7296,2.7313,2.7317,2.733,2.7357,2.7362,2.734,2.7385,2.7392,2.7423,2.7434,2.7419,2.7421,2.7505,2.7506,2.7507,2.7504,0,0,0,0,0,0,2.7211,2.722,2.7231,2.7261,2.7272,2.7316,2.7314,2.7319,2.7334,2.7335,2.7366,2.7371,2.7385,2.7418,2.7426,2.7438,2.7424,2.7504,2.7506,2.7507,2.7503,2.7505,2.7506,0,0,0,0,0,2.7207,2.7228,2.7231,2.7239,2.7286,2.7317,2.7323,2.7339,2.7335,2.7346,2.7364,2.737,2.7432,2.7422,2.743,2.7443,2.7504,2.7505,2.7507,2.7503,2.7505,2.7506,0,0,0,0,0,0,2.7198,2.7232,2.7236,2.7267,2.7289,2.7319,2.7334,2.734,2.7364,2.7363,2.7382,2.7389,2.7419,2.7434,2.7422,2.7473,2.7468,2.7471,2.7462,2.7464,2.7465,2.7461,2.7426,0,0,0,0,0,2.7199,2.7222,2.725,2.7275,2.7286,2.7308,2.7322,2.7332,2.7356,2.7365,2.7385,2.7409,2.7433,2.7449,2.7474,2.7505,2.7513,2.7519,2.752,2.7521,2.7524,2.7543,2.7546,2.7513,2.7513,2.7513,0,0,2.7203,2.7224,2.7237,2.7273,2.7292,2.7315,2.7315,2.734,2.7358,2.7369,2.74,2.7415,2.7443,2.7474,2.7489,2.7488,2.7535,2.7523,2.7524,2.7526,2.7545,2.7548,2.7551,2.7514,2.7514,2.7514,0,0,2.7221,2.7239,2.7262,2.728,2.7308,2.7323,2.7328,2.7358,2.7368,2.7399,2.7409,2.7431,2.7472,2.7492,2.7507,2.7534,2.754,2.7541,2.7549,2.7568,2.757,2.7573,2.7584,2.7587,2.7544,2.7544,2.7544,0,2.7222,2.7257,2.7273,2.7297,2.7314,2.7325,2.7349,2.7366,2.74,2.7411,2.7409,2.7463,2.7482,2.7519,2.7525,2.7537,2.7545,2.7538,2.7569,2.7571,2.7574,2.7584,2.7588,2.7544,2.7544,2.7544,2.7544,0,2.7257,2.7282,2.7297,2.733,2.7348,2.7372,2.7392,2.7408,2.7417,2.7432,2.7464,2.7488,2.7517,2.7527,2.7535,2.7566,2.7564,2.7565,2.7561,2.7577,2.7587,2.7591,2.7544,2.7544,2.7544,2.7544,0,0,2.7271,2.7313,2.7318,2.7334,2.7366,2.7385,2.741,2.7439,2.7453,2.7477,2.7499,2.7534,2.7536,2.7553,2.7564,2.758,2.7602,2.758,2.7581,2.7584,2.7638,2.7638,2.7642,2.7606,2.7607,2.7607,2.7636,0,2.7294,2.7339,2.7354,2.7391,2.7415,2.7426,2.7448,2.7471,2.7486,2.7508,2.7525,2.755,2.755,2.756,2.7577,2.7596,2.7613,2.7594,2.7628,2.7629,2.7621,2.7647,2.7647,2.7673,2.764,2.7641,2.7641,0,2.7327,2.7351,2.7391,2.7421,2.7431,2.745,2.7479,2.75,2.7526,2.7536,2.7555,2.7566,2.7593,2.7587,2.7625,2.7612,2.7627,2.7638,2.7639,2.7644,2.7636,2.7653,2.7681,2.7686,2.7647,2.7647,2.7646,0,2.7335,2.7377,2.7406,2.7419,2.7454,2.7468,2.7483,2.7509,2.7525,2.755,2.7562,2.7589,2.7605,2.7627,2.7644,2.7638,2.7682,2.7677,2.7692,2.7692,2.7701,2.7701,2.7733,2.7709,2.7709,2.7709,2.7709,0,2.7359,2.7383,2.741,2.7429,2.7456,2.7474,2.7501,2.7517,2.754,2.7562,2.7573,2.7594,2.7616,2.764,2.7654,2.7684,2.7691,2.7701,2.7704,2.77,2.7699,2.7711,2.771,2.771,2.771,2.771,2.771,0,2.7373,2.7392,2.7425,2.7456,2.7464,2.7483,2.751,2.7528,2.7544,2.7572,2.758,2.7605,2.7633,2.7653,2.769,2.7699,2.7733,2.7735,2.7724,2.7726,2.7741,2.7739,2.7782,2.779,2.776,2.776,2.776,0,2.7388,2.7407,2.744,2.7455,2.7471,2.7496,2.7513,2.7531,2.7549,2.758,2.7596,2.7625,2.7649,2.7695,2.7717,2.7745,2.7749,2.7763,2.7754,2.7749,2.7751,2.775,2.7753,2.7764,2.7764,2.7765,2.7765,0,2.7413,2.7422,2.7446,2.7474,2.7494,2.7517,2.754,2.7553,2.7575,2.7595,2.7624,2.7643,2.7681,2.771,2.7741,2.7758,2.7766,2.7767,2.7773,2.7769,2.7762,2.7767,2.7729,2.7766,2.7766,2.7766,2.7766,2.7766,2.7429,2.7446,2.7473,2.75,2.7519,2.7541,2.756,2.7578,2.7603,2.7635,2.7644,2.7675,2.7702,2.7744,2.7761,2.7786,2.7785,2.7792,2.7794,2.7796,2.7796,2.7757,2.7791,2.7791,2.7791,2.7791,2.7791,0,2.7455,2.7473,2.7498,2.753,2.7551,2.7556,2.7582,2.76,2.7627,2.7651,2.7675,2.7709,2.7738,2.7762,2.7792,2.7808,2.7812,2.7815,2.7815,2.7819,2.7795,2.7788,2.7811,2.7811,2.7811,2.7811,2.7811,2.7811,2.7472,2.7503,2.7515,2.7555,2.7573,2.7603,2.7618,2.7638,2.7657,2.7695,2.7719,2.7734,2.7759,2.7791,2.7818,2.7824,2.7835,2.7838,2.7845,2.7822,2.782,2.7818,2.7812,2.784,2.784,2.7867,2.7867,2.7867]},{"header":{"parameterUnit":"m.s-1","parameterCategory":1,"la1":30.2991,"la2":30.254,"lo1":-89.0895,"lo2":-89.0444,"dy":0.0017,"dx":0.0017,"nx":28,"ny":28,"refTime":"2024-07-28T09:00:00:Z","depth":0,"parameterNumber":3,"parameterNumberName":"V-component_of_WINDS"},"data":[0,0,0,0,0,0,0,0,0,0,0,0,0,0,0,0,0,0,0,0,0,0,0,0,0,0,0,0,0,0,0,0,0,0,0,0,0,0,0,0,0,0,0,0,0,0,0,0,0,0,0,0,0,0,0,0,0,0,0.7524,0.7523,0,0.7467,0.7466,0.7466,0.7449,0.7449,0.7449,0.745,0.739,0.7388,0.7387,0,0,0,0,0,0,0,0,0,0,0,0,0,0.7617,0.7615,0.7524,0.7523,0.7523,0.7467,0.7466,0.7465,0.7449,0.7449,0.7449,0.745,0.7391,0.7389,0.7386,0,0,0,0,0,0,0,0,0,0,0,0,0,0.757,0.7615,0.7524,0.7508,0.7506,0.7467,0.7466,0.7465,0.7449,0.7449,0.745,0.745,0.7392,0.7389,0.7386,0.736,0,0,0.7378,0.7376,0,0,0,0,0,0,0,0,0.7573,0.7566,0.7511,0.7509,0.7506,0.7465,0.7477,0.743,0.7449,0.747,0.745,0.745,0.7415,0.741,0.7398,0.7357,0.7354,0.7377,0.7376,0.7374,0.7374,0,0,0,0,0,0,0,0.7576,0.7569,0.7501,0.751,0.7507,0.7502,0.7496,0.7468,0.7441,0.7468,0.7467,0.7461,0.7414,0.7401,0.7397,0.7354,0.7377,0.7375,0.7373,0.7372,0.7286,0.7286,0,0,0,0,0,0,0.7582,0.7572,0.7503,0.75,0.7541,0.75,0.7493,0.7478,0.7441,0.7436,0.746,0.746,0.7406,0.74,0.7395,0.7361,0.7374,0.7372,0.737,0.7287,0.7286,0.7286,0,0,0,0,0,0,0.7584,0.7576,0.7505,0.7535,0.7526,0.7498,0.7481,0.7477,0.7464,0.7435,0.743,0.7453,0.7406,0.7399,0.7368,0.7358,0.7371,0.7368,0.7288,0.7287,0.7286,0.7293,0,0,0,0,0,0,0.7587,0.7577,0.7567,0.7535,0.7524,0.7481,0.7481,0.7475,0.7459,0.7459,0.7426,0.7421,0.7406,0.7373,0.7366,0.7355,0.7366,0.7288,0.7287,0.7286,0.7293,0.7292,0.7291,0,0,0,0,0,0.759,0.7571,0.7567,0.7559,0.7512,0.748,0.7474,0.7457,0.7459,0.7448,0.7429,0.7422,0.7361,0.737,0.7362,0.735,0.7289,0.7288,0.7286,0.7294,0.7292,0.7291,0,0,0,0,0,0,0.7603,0.7567,0.7561,0.7532,0.7509,0.7477,0.7464,0.7456,0.7432,0.7432,0.7411,0.7404,0.7375,0.7359,0.737,0.7322,0.7325,0.7322,0.7333,0.7331,0.733,0.7335,0.7364,0,0,0,0,0,0.7602,0.758,0.755,0.7526,0.7515,0.7491,0.7477,0.7466,0.7441,0.7432,0.741,0.7387,0.7362,0.7346,0.7321,0.7291,0.7283,0.7279,0.7278,0.7277,0.7275,0.7256,0.7254,0.7281,0.7281,0.7281,0,0,0.7601,0.7578,0.7566,0.7528,0.7509,0.7486,0.7484,0.7459,0.7442,0.7428,0.7398,0.7381,0.7353,0.7323,0.7308,0.7309,0.7265,0.7275,0.7275,0.7273,0.7255,0.7252,0.725,0.728,0.728,0.7281,0,0,0.7586,0.7567,0.7545,0.7526,0.7497,0.7481,0.7476,0.7445,0.7434,0.7403,0.7392,0.7371,0.7329,0.7309,0.7293,0.727,0.7262,0.7263,0.7257,0.7239,0.7237,0.7235,0.7226,0.7223,0.726,0.726,0.726,0,0.7587,0.7552,0.7535,0.7511,0.7494,0.7481,0.7458,0.744,0.7405,0.7394,0.7395,0.7341,0.7321,0.7285,0.728,0.7268,0.726,0.7266,0.7239,0.7237,0.7235,0.7226,0.7222,0.726,0.726,0.726,0.726,0,0.7555,0.7531,0.7517,0.7483,0.7465,0.7442,0.742,0.7404,0.7394,0.7377,0.7346,0.7322,0.7292,0.7282,0.7272,0.7244,0.7246,0.7243,0.7246,0.7233,0.7224,0.722,0.7261,0.7261,0.726,0.726,0,0,0.7547,0.7503,0.7498,0.7482,0.7449,0.743,0.7406,0.7377,0.7363,0.7339,0.7317,0.7282,0.7279,0.7261,0.7249,0.7233,0.7215,0.7233,0.7232,0.723,0.7182,0.7184,0.718,0.721,0.721,0.7209,0.7184,0,0.7527,0.7484,0.7467,0.7431,0.7408,0.7394,0.7373,0.735,0.7334,0.7312,0.7294,0.7268,0.7267,0.7256,0.7241,0.7221,0.7205,0.7223,0.7189,0.7188,0.7196,0.7176,0.7177,0.7155,0.7181,0.718,0.718,0,0.7499,0.7474,0.7436,0.7405,0.7395,0.7376,0.7348,0.7327,0.73,0.7289,0.7269,0.7258,0.7231,0.7235,0.7198,0.721,0.7195,0.7183,0.7182,0.7178,0.7183,0.717,0.7148,0.7144,0.7174,0.7175,0.7175,0,0.7495,0.7453,0.7425,0.7412,0.7375,0.7362,0.7346,0.732,0.7303,0.7278,0.7267,0.7239,0.7223,0.7201,0.7182,0.7187,0.7146,0.7149,0.7136,0.7136,0.7127,0.7128,0.7102,0.7119,0.7119,0.7119,0.7119,0,0.7475,0.7452,0.7423,0.7405,0.7379,0.7359,0.7333,0.7316,0.7293,0.7271,0.7258,0.7238,0.7214,0.719,0.7175,0.7146,0.7139,0.7129,0.7125,0.713,0.7131,0.712,0.7121,0.7118,0.7118,0.7119,0.7119,0,0.7467,0.7447,0.7414,0.7382,0.7374,0.7355,0.7327,0.731,0.7293,0.7265,0.7258,0.7231,0.7203,0.7182,0.7145,0.7135,0.7103,0.7099,0.7112,0.711,0.7098,0.7099,0.7063,0.7057,0.7079,0.7079,0.7078,0,0.7455,0.7437,0.7403,0.7388,0.7372,0.7347,0.733,0.7309,0.7292,0.726,0.7245,0.7216,0.7192,0.7147,0.7124,0.7095,0.7091,0.708,0.7086,0.7091,0.7089,0.7091,0.7088,0.7079,0.7079,0.7079,0.7078,0,0.7436,0.7427,0.7402,0.7374,0.7354,0.7331,0.7307,0.7295,0.727,0.7251,0.7222,0.7203,0.7165,0.7136,0.7105,0.7088,0.7079,0.7077,0.7072,0.7076,0.7084,0.7079,0.7109,0.7077,0.7078,0.7078,0.7078,0.7078,0.7425,0.7408,0.7381,0.7354,0.7335,0.7313,0.7294,0.7275,0.725,0.7218,0.7207,0.7177,0.715,0.7107,0.709,0.7065,0.7065,0.7059,0.7057,0.7055,0.7055,0.7089,0.706,0.706,0.706,0.706,0.706,0,0.7405,0.7387,0.7362,0.733,0.7308,0.7301,0.7275,0.7257,0.7231,0.7206,0.7182,0.7148,0.712,0.7094,0.7065,0.705,0.7045,0.7043,0.7043,0.7039,0.7058,0.7064,0.7047,0.7047,0.7047,0.7047,0.7047,0.7047,0.7392,0.7362,0.7349,0.731,0.7291,0.7262,0.7247,0.7226,0.7207,0.717,0.7146,0.7129,0.7104,0.7072,0.7045,0.7039,0.7028,0.7027,0.7019,0.7036,0.7038,0.7039,0.7046,0.7025,0.7025,0.7002,0.7002,0.7002]}]]